Year,Month,Day,Hour,Minute,Value (Times are PST for temperature in C)
2021,04,11,00,00,3.00
2021,04,11,00,01,3.00
2021,04,11,00,02,2.90
2021,04,11,00,03,2.90
2021,04,11,00,04,2.90
2021,04,11,00,05,2.80
2021,04,11,00,06,2.70
2021,04,11,00,07,2.70
2021,04,11,00,08,2.60
2021,04,11,00,09,2.50
2021,04,11,00,10,2.50
2021,04,11,00,11,2.40
2021,04,11,00,12,2.30
2021,04,11,00,13,2.30
2021,04,11,00,14,2.30
2021,04,11,00,15,2.20
2021,04,11,00,16,2.20
2021,04,11,00,17,2.20
2021,04,11,00,18,2.20
2021,04,11,00,19,2.10
2021,04,11,00,20,2.10
2021,04,11,00,21,2.00
2021,04,11,00,22,2.00
2021,04,11,00,23,2.00
2021,04,11,00,24,1.90
2021,04,11,00,25,1.90
2021,04,11,00,26,1.90
2021,04,11,00,27,1.90
2021,04,11,00,28,1.80
2021,04,11,00,29,1.80
2021,04,11,00,30,1.80
2021,04,11,00,31,1.70
2021,04,11,00,32,1.70
2021,04,11,00,33,1.70
2021,04,11,00,34,1.70
2021,04,11,00,35,1.70
2021,04,11,00,36,1.70
2021,04,11,00,37,1.60
2021,04,11,00,38,1.60
2021,04,11,00,39,1.60
2021,04,11,00,40,1.60
2021,04,11,00,41,1.50
2021,04,11,00,42,1.50
2021,04,11,00,43,1.50
2021,04,11,00,44,1.50
2021,04,11,00,45,1.40
2021,04,11,00,46,1.40
2021,04,11,00,47,1.30
2021,04,11,00,48,1.30
2021,04,11,00,49,1.20
2021,04,11,00,50,1.20
2021,04,11,00,51,1.20
2021,04,11,00,52,1.20
2021,04,11,00,53,1.20
2021,04,11,00,54,1.20
2021,04,11,00,55,1.20
2021,04,11,00,56,1.20
2021,04,11,00,57,1.20
2021,04,11,00,58,1.10
2021,04,11,00,59,1.10
2021,04,11,01,00,1.10
2021,04,11,01,01,1.10
2021,04,11,01,02,1.10
2021,04,11,01,03,1.10
2021,04,11,01,04,1.00
2021,04,11,01,05,1.00
2021,04,11,01,06,1.00
2021,04,11,01,07,1.00
2021,04,11,01,08,1.00
2021,04,11,01,09,0.90
2021,04,11,01,10,0.90
2021,04,11,01,11,0.90
2021,04,11,01,12,0.90
2021,04,11,01,13,0.90
2021,04,11,01,14,0.90
2021,04,11,01,15,0.90
2021,04,11,01,16,0.90
2021,04,11,01,17,0.90
2021,04,11,01,18,0.90
2021,04,11,01,19,0.90
2021,04,11,01,20,0.90
2021,04,11,01,21,0.90
2021,04,11,01,22,0.80
2021,04,11,01,23,0.80
2021,04,11,01,24,0.80
2021,04,11,01,25,0.80
2021,04,11,01,26,0.80
2021,04,11,01,27,0.80
2021,04,11,01,28,0.80
2021,04,11,01,29,0.80
2021,04,11,01,30,0.80
2021,04,11,01,31,0.80
2021,04,11,01,32,0.70
2021,04,11,01,33,0.70
2021,04,11,01,34,0.70
2021,04,11,01,35,0.70
2021,04,11,01,36,0.70
2021,04,11,01,37,0.60
2021,04,11,01,38,0.60
2021,04,11,01,39,0.60
2021,04,11,01,40,0.60
2021,04,11,01,41,0.60
2021,04,11,01,42,0.60
2021,04,11,01,43,0.50
2021,04,11,01,44,0.50
2021,04,11,01,45,0.40
2021,04,11,01,46,0.40
2021,04,11,01,47,0.40
2021,04,11,01,48,0.40
2021,04,11,01,49,0.40
2021,04,11,01,50,0.40
2021,04,11,01,51,0.40
2021,04,11,01,52,0.40
2021,04,11,01,53,0.30
2021,04,11,01,54,0.30
2021,04,11,01,55,0.30
2021,04,11,01,56,0.30
2021,04,11,01,57,0.30
2021,04,11,01,58,0.30
2021,04,11,01,59,0.30
2021,04,11,02,00,0.20
2021,04,11,02,01,0.20
2021,04,11,02,02,0.20
2021,04,11,02,03,0.20
2021,04,11,02,04,0.20
2021,04,11,02,05,0.20
2021,04,11,02,06,0.20
2021,04,11,02,07,0.20
2021,04,11,02,08,0.20
2021,04,11,02,09,0.20
2021,04,11,02,10,0.20
2021,04,11,02,11,0.20
2021,04,11,02,12,0.20
2021,04,11,02,13,0.10
2021,04,11,02,14,0.10
2021,04,11,02,15,0.00
2021,04,11,02,16,0.00
2021,04,11,02,17,0.00
2021,04,11,02,18,0.00
2021,04,11,02,19,-0.10
2021,04,11,02,20,-0.10
2021,04,11,02,21,-0.10
2021,04,11,02,22,-0.10
2021,04,11,02,23,-0.10
2021,04,11,02,24,-0.10
2021,04,11,02,25,-0.10
2021,04,11,02,26,-0.10
2021,04,11,02,27,-0.10
2021,04,11,02,28,-0.10
2021,04,11,02,29,-0.10
2021,04,11,02,30,-0.10
2021,04,11,02,31,-0.10
2021,04,11,02,32,-0.10
2021,04,11,02,33,-0.10
2021,04,11,02,34,-0.10
2021,04,11,02,35,-0.10
2021,04,11,02,36,-0.10
2021,04,11,02,37,-0.10
2021,04,11,02,38,-0.10
2021,04,11,02,39,-0.10
2021,04,11,02,40,-0.10
2021,04,11,02,41,-0.10
2021,04,11,02,42,-0.10
2021,04,11,02,43,-0.10
2021,04,11,02,44,-0.10
2021,04,11,02,45,-0.10
2021,04,11,02,46,-0.10
2021,04,11,02,47,-0.20
2021,04,11,02,48,-0.20
2021,04,11,02,49,-0.20
2021,04,11,02,50,-0.20
2021,04,11,02,51,-0.30
2021,04,11,02,52,-0.30
2021,04,11,02,53,-0.30
2021,04,11,02,54,-0.30
2021,04,11,02,55,-0.30
2021,04,11,02,56,-0.30
2021,04,11,02,57,-0.30
2021,04,11,02,58,-0.30
2021,04,11,02,59,-0.40
2021,04,11,03,00,-0.40
2021,04,11,03,01,-0.40
2021,04,11,03,02,-0.40
2021,04,11,03,03,-0.50
2021,04,11,03,04,-0.50
2021,04,11,03,05,-0.50
2021,04,11,03,06,-0.50
2021,04,11,03,07,-0.60
2021,04,11,03,08,-0.60
2021,04,11,03,09,-0.60
2021,04,11,03,10,-0.60
2021,04,11,03,11,-0.50
2021,04,11,03,12,-0.50
2021,04,11,03,13,-0.50
2021,04,11,03,14,-0.60
2021,04,11,03,15,-0.60
2021,04,11,03,16,-0.60
2021,04,11,03,17,-0.60
2021,04,11,03,18,-0.60
2021,04,11,03,19,-0.60
2021,04,11,03,20,-0.60
2021,04,11,03,21,-0.60
2021,04,11,03,22,-0.60
2021,04,11,03,23,-0.60
2021,04,11,03,24,-0.60
2021,04,11,03,25,-0.60
2021,04,11,03,26,-0.60
2021,04,11,03,27,-0.70
2021,04,11,03,28,-0.70
2021,04,11,03,29,-0.70
2021,04,11,03,30,-0.70
2021,04,11,03,31,-0.70
2021,04,11,03,32,-0.70
2021,04,11,03,33,-0.70
2021,04,11,03,34,-0.70
2021,04,11,03,35,-0.70
2021,04,11,03,36,-0.70
2021,04,11,03,37,-0.80
2021,04,11,03,38,-0.80
2021,04,11,03,39,-0.80
2021,04,11,03,40,-0.70
2021,04,11,03,41,-0.70
2021,04,11,03,42,-0.70
2021,04,11,03,43,-0.70
2021,04,11,03,44,-0.70
2021,04,11,03,45,-0.70
2021,04,11,03,46,-0.70
2021,04,11,03,47,-0.70
2021,04,11,03,48,-0.70
2021,04,11,03,49,-0.70
2021,04,11,03,50,-0.70
2021,04,11,03,51,-0.80
2021,04,11,03,52,-0.80
2021,04,11,03,53,-0.70
2021,04,11,03,54,-0.70
2021,04,11,03,55,-0.70
2021,04,11,03,56,-0.70
2021,04,11,03,57,-0.70
2021,04,11,03,58,-0.70
2021,04,11,03,59,-0.70
2021,04,11,04,00,-0.80
2021,04,11,04,01,-0.80
2021,04,11,04,02,-0.80
2021,04,11,04,03,-0.80
2021,04,11,04,04,-0.80
2021,04,11,04,05,-0.80
2021,04,11,04,06,-0.80
2021,04,11,04,07,-0.80
2021,04,11,04,08,-0.80
2021,04,11,04,09,-0.80
2021,04,11,04,10,-0.80
2021,04,11,04,11,-0.80
2021,04,11,04,12,-0.80
2021,04,11,04,13,-0.80
2021,04,11,04,14,-0.80
2021,04,11,04,15,-0.80
2021,04,11,04,16,-0.80
2021,04,11,04,17,-0.90
2021,04,11,04,18,-0.90
2021,04,11,04,19,-0.90
2021,04,11,04,20,-0.90
2021,04,11,04,21,-0.90
2021,04,11,04,22,-0.90
2021,04,11,04,23,-0.90
2021,04,11,04,24,-0.90
2021,04,11,04,25,-0.90
2021,04,11,04,26,-0.90
2021,04,11,04,27,-0.90
2021,04,11,04,28,-0.90
2021,04,11,04,29,-0.90
2021,04,11,04,30,-0.90
2021,04,11,04,31,-0.90
2021,04,11,04,32,-0.90
2021,04,11,04,33,-0.80
2021,04,11,04,34,-0.80
2021,04,11,04,35,-0.80
2021,04,11,04,36,-0.80
2021,04,11,04,37,-0.80
2021,04,11,04,38,-0.80
2021,04,11,04,39,-0.80
2021,04,11,04,40,-0.80
2021,04,11,04,41,-0.80
2021,04,11,04,42,-0.80
2021,04,11,04,43,-0.90
2021,04,11,04,44,-0.90
2021,04,11,04,45,-0.90
2021,04,11,04,46,-0.90
2021,04,11,04,47,-1.00
2021,04,11,04,48,-1.00
2021,04,11,04,49,-1.00
2021,04,11,04,50,-1.00
2021,04,11,04,51,-1.10
2021,04,11,04,52,-1.10
2021,04,11,04,53,-1.10
2021,04,11,04,54,-1.10
2021,04,11,04,55,-1.10
2021,04,11,04,56,-1.10
2021,04,11,04,57,-1.10
2021,04,11,04,58,-1.10
2021,04,11,04,59,-1.10
2021,04,11,05,00,-1.10
2021,04,11,05,01,-1.20
2021,04,11,05,02,-1.20
2021,04,11,05,03,-1.20
2021,04,11,05,04,-1.20
2021,04,11,05,05,-1.20
2021,04,11,05,06,-1.20
2021,04,11,05,07,-1.20
2021,04,11,05,08,-1.20
2021,04,11,05,09,-1.20
2021,04,11,05,10,-1.20
2021,04,11,05,11,-1.20
2021,04,11,05,12,-1.30
2021,04,11,05,13,-1.30
2021,04,11,05,14,-1.30
2021,04,11,05,15,-1.30
2021,04,11,05,16,-1.30
2021,04,11,05,17,-1.30
2021,04,11,05,18,-1.30
2021,04,11,05,19,-1.30
2021,04,11,05,20,-1.30
2021,04,11,05,21,-1.30
2021,04,11,05,22,-1.30
2021,04,11,05,23,-1.30
2021,04,11,05,24,-1.30
2021,04,11,05,25,-1.30
2021,04,11,05,26,-1.40
2021,04,11,05,27,-1.40
2021,04,11,05,28,-1.40
2021,04,11,05,29,-1.40
2021,04,11,05,30,-1.40
2021,04,11,05,31,-1.40
2021,04,11,05,32,-1.40
2021,04,11,05,33,-1.40
2021,04,11,05,34,-1.40
2021,04,11,05,35,-1.30
2021,04,11,05,36,-1.30
2021,04,11,05,37,-1.30
2021,04,11,05,38,-1.30
2021,04,11,05,39,-1.30
2021,04,11,05,40,-1.30
2021,04,11,05,41,-1.30
2021,04,11,05,42,-1.30
2021,04,11,05,43,-1.30
2021,04,11,05,44,-1.30
2021,04,11,05,45,-1.30
2021,04,11,05,46,-1.30
2021,04,11,05,47,-1.30
2021,04,11,05,48,-1.30
2021,04,11,05,49,-1.30
2021,04,11,05,50,-1.30
2021,04,11,05,51,-1.30
2021,04,11,05,52,-1.30
2021,04,11,05,53,-1.30
2021,04,11,05,54,-1.30
2021,04,11,05,55,-1.30
2021,04,11,05,56,-1.30
2021,04,11,05,57,-1.30
2021,04,11,05,58,-1.40
2021,04,11,05,59,-1.40
2021,04,11,06,00,-1.40
2021,04,11,06,01,-1.40
2021,04,11,06,02,-1.40
2021,04,11,06,03,-1.40
2021,04,11,06,04,-1.40
2021,04,11,06,05,-1.40
2021,04,11,06,06,-1.40
2021,04,11,06,07,-1.40
2021,04,11,06,08,-1.40
2021,04,11,06,09,-1.40
2021,04,11,06,10,-1.40
2021,04,11,06,11,-1.40
2021,04,11,06,12,-1.40
2021,04,11,06,13,-1.40
2021,04,11,06,14,-1.40
2021,04,11,06,15,-1.40
2021,04,11,06,16,-1.40
2021,04,11,06,17,-1.40
2021,04,11,06,18,-1.40
2021,04,11,06,19,-1.40
2021,04,11,06,20,-1.40
2021,04,11,06,21,-1.50
2021,04,11,06,22,-1.50
2021,04,11,06,23,-1.50
2021,04,11,06,24,-1.50
2021,04,11,06,25,-1.50
2021,04,11,06,26,-1.50
2021,04,11,06,27,-1.50
2021,04,11,06,28,-1.50
2021,04,11,06,29,-1.50
2021,04,11,06,30,-1.50
2021,04,11,06,31,-1.50
2021,04,11,06,32,-1.50
2021,04,11,06,33,-1.50
2021,04,11,06,34,-1.60
2021,04,11,06,35,-1.60
2021,04,11,06,36,-1.60
2021,04,11,06,37,-1.60
2021,04,11,06,38,-1.60
2021,04,11,06,39,-1.60
2021,04,11,06,40,-1.60
2021,04,11,06,41,-1.60
2021,04,11,06,42,-1.50
2021,04,11,06,43,-1.50
2021,04,11,06,44,-1.50
2021,04,11,06,45,-1.50
2021,04,11,06,46,-1.40
2021,04,11,06,47,-1.40
2021,04,11,06,48,-1.40
2021,04,11,06,49,-1.40
2021,04,11,06,50,-1.40
2021,04,11,06,51,-1.40
2021,04,11,06,52,-1.40
2021,04,11,06,53,-1.40
2021,04,11,06,54,-1.40
2021,04,11,06,55,-1.40
2021,04,11,06,56,-1.30
2021,04,11,06,57,-1.30
2021,04,11,06,58,-1.30
2021,04,11,06,59,-1.30
2021,04,11,07,00,-1.30
2021,04,11,07,01,-1.30
2021,04,11,07,02,-1.20
2021,04,11,07,03,-1.20
2021,04,11,07,04,-1.20
2021,04,11,07,05,-1.10
2021,04,11,07,06,-1.00
2021,04,11,07,07,-0.90
2021,04,11,07,08,-0.80
2021,04,11,07,09,-0.80
2021,04,11,07,10,-0.80
2021,04,11,07,11,-0.90
2021,04,11,07,12,-0.90
2021,04,11,07,13,-0.90
2021,04,11,07,14,-0.90
2021,04,11,07,15,-0.90
2021,04,11,07,16,-0.90
2021,04,11,07,17,-0.80
2021,04,11,07,18,-0.80
2021,04,11,07,19,-0.80
2021,04,11,07,20,-0.80
2021,04,11,07,21,-0.70
2021,04,11,07,22,-0.70
2021,04,11,07,23,-0.70
2021,04,11,07,24,-0.70
2021,04,11,07,25,-0.70
2021,04,11,07,26,-0.70
2021,04,11,07,27,-0.70
2021,04,11,07,28,-0.70
2021,04,11,07,29,-0.70
2021,04,11,07,30,-0.70
2021,04,11,07,31,-0.70
2021,04,11,07,32,-0.70
2021,04,11,07,33,-0.60
2021,04,11,07,34,-0.60
2021,04,11,07,35,-0.60
2021,04,11,07,36,-0.50
2021,04,11,07,37,-0.40
2021,04,11,07,38,-0.40
2021,04,11,07,39,-0.30
2021,04,11,07,40,-0.30
2021,04,11,07,41,-0.20
2021,04,11,07,42,-0.20
2021,04,11,07,43,-0.10
2021,04,11,07,44,-0.10
2021,04,11,07,45,0.00
2021,04,11,07,46,0.00
2021,04,11,07,47,0.10
2021,04,11,07,48,0.10
2021,04,11,07,49,0.10
2021,04,11,07,50,0.20
2021,04,11,07,51,0.20
2021,04,11,07,52,0.30
2021,04,11,07,53,0.30
2021,04,11,07,54,0.40
2021,04,11,07,55,0.50
2021,04,11,07,56,0.50
2021,04,11,07,57,0.60
2021,04,11,07,58,0.70
2021,04,11,07,59,0.80
2021,04,11,08,00,0.80
2021,04,11,08,01,0.90
2021,04,11,08,02,0.90
2021,04,11,08,03,1.00
2021,04,11,08,04,1.00
2021,04,11,08,05,1.10
2021,04,11,08,06,1.20
2021,04,11,08,07,1.20
2021,04,11,08,08,1.30
2021,04,11,08,09,1.40
2021,04,11,08,10,1.50
2021,04,11,08,11,1.60
2021,04,11,08,12,1.70
2021,04,11,08,13,1.80
2021,04,11,08,14,1.80
2021,04,11,08,15,1.90
2021,04,11,08,16,2.10
2021,04,11,08,17,2.20
2021,04,11,08,18,2.30
2021,04,11,08,19,2.40
2021,04,11,08,20,2.50
2021,04,11,08,21,2.60
2021,04,11,08,22,2.70
2021,04,11,08,23,2.70
2021,04,11,08,24,2.80
2021,04,11,08,25,2.90
2021,04,11,08,26,2.90
2021,04,11,08,27,3.00
2021,04,11,08,28,3.00
2021,04,11,08,29,3.10
2021,04,11,08,30,3.10
2021,04,11,08,31,3.20
2021,04,11,08,32,3.20
2021,04,11,08,33,3.30
2021,04,11,08,34,3.30
2021,04,11,08,35,3.30
2021,04,11,08,36,3.40
2021,04,11,08,37,3.50
2021,04,11,08,38,3.50
2021,04,11,08,39,3.60
2021,04,11,08,40,3.70
2021,04,11,08,41,3.70
2021,04,11,08,42,3.70
2021,04,11,08,43,3.80
2021,04,11,08,44,3.80
2021,04,11,08,45,3.90
2021,04,11,08,46,3.90
2021,04,11,08,47,4.00
2021,04,11,08,48,4.10
2021,04,11,08,49,4.10
2021,04,11,08,50,4.10
2021,04,11,08,51,4.20
2021,04,11,08,52,4.20
2021,04,11,08,53,4.30
2021,04,11,08,54,4.30
2021,04,11,08,55,4.30
2021,04,11,08,56,4.40
2021,04,11,08,57,4.40
2021,04,11,08,58,4.40
2021,04,11,08,59,4.40
2021,04,11,09,00,4.40
2021,04,11,09,01,4.40
2021,04,11,09,02,4.40
2021,04,11,09,03,4.40
2021,04,11,09,04,4.40
2021,04,11,09,05,4.40
2021,04,11,09,06,4.50
2021,04,11,09,07,4.50
2021,04,11,09,08,4.50
2021,04,11,09,09,4.60
2021,04,11,09,10,4.60
2021,04,11,09,11,4.70
2021,04,11,09,12,4.70
2021,04,11,09,13,4.80
2021,04,11,09,14,4.80
2021,04,11,09,15,4.80
2021,04,11,09,16,4.80
2021,04,11,09,17,4.80
2021,04,11,09,18,4.80
2021,04,11,09,19,4.80
2021,04,11,09,20,4.90
2021,04,11,09,21,4.90
2021,04,11,09,22,4.90
2021,04,11,09,23,5.00
2021,04,11,09,24,5.00
2021,04,11,09,25,5.10
2021,04,11,09,26,5.10
2021,04,11,09,27,5.10
2021,04,11,09,28,5.20
2021,04,11,09,29,5.20
2021,04,11,09,30,5.30
2021,04,11,09,31,5.30
2021,04,11,09,32,5.40
2021,04,11,09,33,5.40
2021,04,11,09,34,5.50
2021,04,11,09,35,5.60
2021,04,11,09,36,5.70
2021,04,11,09,37,5.70
2021,04,11,09,38,5.80
2021,04,11,09,39,5.80
2021,04,11,09,40,5.90
2021,04,11,09,41,5.90
2021,04,11,09,42,5.90
2021,04,11,09,43,5.90
2021,04,11,09,44,5.90
2021,04,11,09,45,6.00
2021,04,11,09,46,6.00
2021,04,11,09,47,6.10
2021,04,11,09,48,6.10
2021,04,11,09,49,6.20
2021,04,11,09,50,6.20
2021,04,11,09,51,6.30
2021,04,11,09,52,6.30
2021,04,11,09,53,6.40
2021,04,11,09,54,6.40
2021,04,11,09,55,6.40
2021,04,11,09,56,6.30
2021,04,11,09,57,6.40
2021,04,11,09,58,6.40
2021,04,11,09,59,6.40
2021,04,11,10,00,6.50
2021,04,11,10,01,6.50
2021,04,11,10,02,6.50
2021,04,11,10,03,6.60
2021,04,11,10,04,6.60
2021,04,11,10,05,6.60
2021,04,11,10,06,6.60
2021,04,11,10,07,6.70
2021,04,11,10,08,6.70
2021,04,11,10,09,6.80
2021,04,11,10,10,6.80
2021,04,11,10,11,6.80
2021,04,11,10,12,6.80
2021,04,11,10,13,6.80
2021,04,11,10,14,6.90
2021,04,11,10,15,6.90
2021,04,11,10,16,7.00
2021,04,11,10,17,7.00
2021,04,11,10,18,7.00
2021,04,11,10,19,7.10
2021,04,11,10,20,7.10
2021,04,11,10,21,7.00
2021,04,11,10,22,7.00
2021,04,11,10,23,6.90
2021,04,11,10,24,6.90
2021,04,11,10,25,6.90
2021,04,11,10,26,6.90
2021,04,11,10,27,6.90
2021,04,11,10,28,6.90
2021,04,11,10,29,6.90
2021,04,11,10,30,6.90
2021,04,11,10,31,6.90
2021,04,11,10,32,6.90
2021,04,11,10,33,6.90
2021,04,11,10,34,6.90
2021,04,11,10,35,6.90
2021,04,11,10,36,6.90
2021,04,11,10,37,6.90
2021,04,11,10,38,7.00
2021,04,11,10,39,7.00
2021,04,11,10,40,7.00
2021,04,11,10,41,7.00
2021,04,11,10,42,7.10
2021,04,11,10,43,7.00
2021,04,11,10,44,7.00
2021,04,11,10,45,7.10
2021,04,11,10,46,7.10
2021,04,11,10,47,7.10
2021,04,11,10,48,7.20
2021,04,11,10,49,7.30
2021,04,11,10,50,7.30
2021,04,11,10,51,7.40
2021,04,11,10,52,7.40
2021,04,11,10,53,7.40
2021,04,11,10,54,7.40
2021,04,11,10,55,7.40
2021,04,11,10,56,7.40
2021,04,11,10,57,7.40
2021,04,11,10,58,7.50
2021,04,11,10,59,7.50
2021,04,11,11,00,7.50
2021,04,11,11,01,7.50
2021,04,11,11,02,7.50
2021,04,11,11,03,7.50
2021,04,11,11,04,7.60
2021,04,11,11,05,7.60
2021,04,11,11,06,7.60
2021,04,11,11,07,7.60
2021,04,11,11,08,7.60
2021,04,11,11,09,7.60
2021,04,11,11,10,7.60
2021,04,11,11,11,7.70
2021,04,11,11,12,7.70
2021,04,11,11,13,7.70
2021,04,11,11,14,7.70
2021,04,11,11,15,7.70
2021,04,11,11,16,7.70
2021,04,11,11,17,7.70
2021,04,11,11,18,7.70
2021,04,11,11,19,7.70
2021,04,11,11,20,7.70
2021,04,11,11,21,7.70
2021,04,11,11,22,7.70
2021,04,11,11,23,7.70
2021,04,11,11,24,7.80
2021,04,11,11,25,7.80
2021,04,11,11,26,7.80
2021,04,11,11,27,7.80
2021,04,11,11,28,7.90
2021,04,11,11,29,7.90
2021,04,11,11,30,7.90
2021,04,11,11,31,7.90
2021,04,11,11,32,7.90
2021,04,11,11,33,7.90
2021,04,11,11,34,7.90
2021,04,11,11,35,8.00
2021,04,11,11,36,8.00
2021,04,11,11,37,8.10
2021,04,11,11,38,8.10
2021,04,11,11,39,8.10
2021,04,11,11,40,8.10
2021,04,11,11,41,8.10
2021,04,11,11,42,8.20
2021,04,11,11,43,8.30
2021,04,11,11,44,8.30
2021,04,11,11,45,8.20
2021,04,11,11,46,8.20
2021,04,11,11,47,8.20
2021,04,11,11,48,8.20
2021,04,11,11,49,8.20
2021,04,11,11,50,8.20
2021,04,11,11,51,8.20
2021,04,11,11,52,8.20
2021,04,11,11,53,8.20
2021,04,11,11,54,8.30
2021,04,11,11,55,8.30
2021,04,11,11,56,8.20
2021,04,11,11,57,8.20
2021,04,11,11,58,8.20
2021,04,11,11,59,8.20
2021,04,11,12,00,8.10
2021,04,11,12,01,8.10
2021,04,11,12,02,8.10
2021,04,11,12,03,8.20
2021,04,11,12,04,8.30
2021,04,11,12,05,8.40
2021,04,11,12,06,8.50
2021,04,11,12,07,8.60
2021,04,11,12,08,8.70
2021,04,11,12,09,8.70
2021,04,11,12,10,8.70
2021,04,11,12,11,8.70
2021,04,11,12,12,8.60
2021,04,11,12,13,8.60
2021,04,11,12,14,8.50
2021,04,11,12,15,8.40
2021,04,11,12,16,8.40
2021,04,11,12,17,8.40
2021,04,11,12,18,8.40
2021,04,11,12,19,8.40
2021,04,11,12,20,8.50
2021,04,11,12,21,8.60
2021,04,11,12,22,8.70
2021,04,11,12,23,8.80
2021,04,11,12,24,8.90
2021,04,11,12,25,8.90
2021,04,11,12,26,9.00
2021,04,11,12,27,9.00
2021,04,11,12,28,9.10
2021,04,11,12,29,9.10
2021,04,11,12,30,9.10
2021,04,11,12,31,9.10
2021,04,11,12,32,9.10
2021,04,11,12,33,9.10
2021,04,11,12,34,9.00
2021,04,11,12,35,9.00
2021,04,11,12,36,9.00
2021,04,11,12,37,8.90
2021,04,11,12,38,8.90
2021,04,11,12,39,8.80
2021,04,11,12,40,8.80
2021,04,11,12,41,8.70
2021,04,11,12,42,8.80
2021,04,11,12,43,8.80
2021,04,11,12,44,8.90
2021,04,11,12,45,8.90
2021,04,11,12,46,9.00
2021,04,11,12,47,9.10
2021,04,11,12,48,9.10
2021,04,11,12,49,9.20
2021,04,11,12,50,9.20
2021,04,11,12,51,9.20
2021,04,11,12,52,9.20
2021,04,11,12,53,9.10
2021,04,11,12,54,9.00
2021,04,11,12,55,9.00
2021,04,11,12,56,8.90
2021,04,11,12,57,8.80
2021,04,11,12,58,8.80
2021,04,11,12,59,8.70
2021,04,11,13,00,8.70
2021,04,11,13,01,8.60
2021,04,11,13,02,8.60
2021,04,11,13,03,8.60
2021,04,11,13,04,8.60
2021,04,11,13,05,8.50
2021,04,11,13,06,8.50
2021,04,11,13,07,8.60
2021,04,11,13,08,8.60
2021,04,11,13,09,8.60
2021,04,11,13,10,8.60
2021,04,11,13,11,8.60
2021,04,11,13,12,8.60
2021,04,11,13,13,8.60
2021,04,11,13,14,8.50
2021,04,11,13,15,8.50
2021,04,11,13,16,8.40
2021,04,11,13,17,8.50
2021,04,11,13,18,8.50
2021,04,11,13,19,8.60
2021,04,11,13,20,8.60
2021,04,11,13,21,8.60
2021,04,11,13,22,8.60
2021,04,11,13,23,8.70
2021,04,11,13,24,8.70
2021,04,11,13,25,8.60
2021,04,11,13,26,8.60
2021,04,11,13,27,8.60
2021,04,11,13,28,8.60
2021,04,11,13,29,8.50
2021,04,11,13,30,8.50
2021,04,11,13,31,8.50
2021,04,11,13,32,8.50
2021,04,11,13,33,8.50
2021,04,11,13,34,8.60
2021,04,11,13,35,8.60
2021,04,11,13,36,8.60
2021,04,11,13,37,8.70
2021,04,11,13,38,8.70
2021,04,11,13,39,8.70
2021,04,11,13,40,8.70
2021,04,11,13,41,8.70
2021,04,11,13,42,8.70
2021,04,11,13,43,8.80
2021,04,11,13,44,8.90
2021,04,11,13,45,8.90
2021,04,11,13,46,8.90
2021,04,11,13,47,8.90
2021,04,11,13,48,8.90
2021,04,11,13,49,8.90
2021,04,11,13,50,8.80
2021,04,11,13,51,8.80
2021,04,11,13,52,8.80
2021,04,11,13,53,8.80
2021,04,11,13,54,8.80
2021,04,11,13,55,8.80
2021,04,11,13,56,8.80
2021,04,11,13,57,8.70
2021,04,11,13,58,8.80
2021,04,11,13,59,8.80
2021,04,11,14,00,8.90
2021,04,11,14,01,8.90
2021,04,11,14,02,8.90
2021,04,11,14,03,8.90
2021,04,11,14,04,8.90
2021,04,11,14,05,8.90
2021,04,11,14,06,8.90
2021,04,11,14,07,8.90
2021,04,11,14,08,8.90
2021,04,11,14,09,8.90
2021,04,11,14,10,8.80
2021,04,11,14,11,8.80
2021,04,11,14,12,8.80
2021,04,11,14,13,8.80
2021,04,11,14,14,8.90
2021,04,11,14,15,9.00
2021,04,11,14,16,9.00
2021,04,11,14,17,9.00
2021,04,11,14,18,9.00
2021,04,11,14,19,9.00
2021,04,11,14,20,8.90
2021,04,11,14,21,8.90
2021,04,11,14,22,9.00
2021,04,11,14,23,9.00
2021,04,11,14,24,9.10
2021,04,11,14,25,9.10
2021,04,11,14,26,9.10
2021,04,11,14,27,9.00
2021,04,11,14,28,9.00
2021,04,11,14,29,8.90
2021,04,11,14,30,8.90
2021,04,11,14,31,8.90
2021,04,11,14,32,8.90
2021,04,11,14,33,8.80
2021,04,11,14,34,8.90
2021,04,11,14,35,8.90
2021,04,11,14,36,8.90
2021,04,11,14,37,8.90
2021,04,11,14,38,8.90
2021,04,11,14,39,9.00
2021,04,11,14,40,9.00
2021,04,11,14,41,9.10
2021,04,11,14,42,9.10
2021,04,11,14,43,9.20
2021,04,11,14,44,9.30
2021,04,11,14,45,9.50
2021,04,11,14,46,9.60
2021,04,11,14,47,9.70
2021,04,11,14,48,9.70
2021,04,11,14,49,9.70
2021,04,11,14,50,9.70
2021,04,11,14,51,9.70
2021,04,11,14,52,9.70
2021,04,11,14,53,9.70
2021,04,11,14,54,9.60
2021,04,11,14,55,9.60
2021,04,11,14,56,9.60
2021,04,11,14,57,9.70
2021,04,11,14,58,9.80
2021,04,11,14,59,9.80
2021,04,11,15,00,9.90
2021,04,11,15,01,10.00
2021,04,11,15,02,10.10
2021,04,11,15,03,10.20
2021,04,11,15,04,10.30
2021,04,11,15,05,10.30
2021,04,11,15,06,10.20
2021,04,11,15,07,10.10
2021,04,11,15,08,10.00
2021,04,11,15,09,9.90
2021,04,11,15,10,9.80
2021,04,11,15,11,9.80
2021,04,11,15,12,9.80
2021,04,11,15,13,9.70
2021,04,11,15,14,9.70
2021,04,11,15,15,9.70
2021,04,11,15,16,9.70
2021,04,11,15,17,9.70
2021,04,11,15,18,9.80
2021,04,11,15,19,9.90
2021,04,11,15,20,9.90
2021,04,11,15,21,9.90
2021,04,11,15,22,9.90
2021,04,11,15,23,9.90
2021,04,11,15,24,9.90
2021,04,11,15,25,9.90
2021,04,11,15,26,9.80
2021,04,11,15,27,9.80
2021,04,11,15,28,9.80
2021,04,11,15,29,9.80
2021,04,11,15,30,9.80
2021,04,11,15,31,9.90
2021,04,11,15,32,10.00
2021,04,11,15,33,10.10
2021,04,11,15,34,10.10
2021,04,11,15,35,10.10
2021,04,11,15,36,10.10
2021,04,11,15,37,10.10
2021,04,11,15,38,10.20
2021,04,11,15,39,10.20
2021,04,11,15,40,10.20
2021,04,11,15,41,10.20
2021,04,11,15,42,10.10
2021,04,11,15,43,10.10
2021,04,11,15,44,10.00
2021,04,11,15,45,10.00
2021,04,11,15,46,10.00
2021,04,11,15,47,10.00
2021,04,11,15,48,10.00
2021,04,11,15,49,10.00
2021,04,11,15,50,10.00
2021,04,11,15,51,10.00
2021,04,11,15,52,10.00
2021,04,11,15,53,10.00
2021,04,11,15,54,10.10
2021,04,11,15,55,10.10
2021,04,11,15,56,10.20
2021,04,11,15,57,10.30
2021,04,11,15,58,10.30
2021,04,11,15,59,10.20
2021,04,11,16,00,10.20
2021,04,11,16,01,10.20
2021,04,11,16,02,10.10
2021,04,11,16,03,10.10
2021,04,11,16,04,10.10
2021,04,11,16,05,10.10
2021,04,11,16,06,10.20
2021,04,11,16,07,10.30
2021,04,11,16,08,10.40
2021,04,11,16,09,10.40
2021,04,11,16,10,10.40
2021,04,11,16,11,10.40
2021,04,11,16,12,10.40
2021,04,11,16,13,10.30
2021,04,11,16,14,10.30
2021,04,11,16,15,10.30
2021,04,11,16,16,10.20
2021,04,11,16,17,10.20
2021,04,11,16,18,10.20
2021,04,11,16,19,10.20
2021,04,11,16,20,10.30
2021,04,11,16,21,10.30
2021,04,11,16,22,10.40
2021,04,11,16,23,10.40
2021,04,11,16,24,10.40
2021,04,11,16,25,10.40
2021,04,11,16,26,10.30
2021,04,11,16,27,10.30
2021,04,11,16,28,10.30
2021,04,11,16,29,10.30
2021,04,11,16,30,10.30
2021,04,11,16,31,10.30
2021,04,11,16,32,10.30
2021,04,11,16,33,10.30
2021,04,11,16,34,10.40
2021,04,11,16,35,10.50
2021,04,11,16,36,10.50
2021,04,11,16,37,10.60
2021,04,11,16,38,10.60
2021,04,11,16,39,10.60
2021,04,11,16,40,10.70
2021,04,11,16,41,10.80
2021,04,11,16,42,10.80
2021,04,11,16,43,10.70
2021,04,11,16,44,10.60
2021,04,11,16,45,10.60
2021,04,11,16,46,10.50
2021,04,11,16,47,10.40
2021,04,11,16,48,10.40
2021,04,11,16,49,10.40
2021,04,11,16,50,10.40
2021,04,11,16,51,10.40
2021,04,11,16,52,10.40
2021,04,11,16,53,10.40
2021,04,11,16,54,10.40
2021,04,11,16,55,10.40
2021,04,11,16,56,10.40
2021,04,11,16,57,10.40
2021,04,11,16,58,10.40
2021,04,11,16,59,10.40
2021,04,11,17,00,10.40
2021,04,11,17,01,10.30
2021,04,11,17,02,10.30
2021,04,11,17,03,10.20
2021,04,11,17,04,10.20
2021,04,11,17,05,10.20
2021,04,11,17,06,10.20
2021,04,11,17,07,10.20
2021,04,11,17,08,10.30
2021,04,11,17,09,10.20
2021,04,11,17,10,10.30
2021,04,11,17,11,10.30
2021,04,11,17,12,10.40
2021,04,11,17,13,10.50
2021,04,11,17,14,10.50
2021,04,11,17,15,10.50
2021,04,11,17,16,10.50
2021,04,11,17,17,10.50
2021,04,11,17,18,10.40
2021,04,11,17,19,10.40
2021,04,11,17,20,10.40
2021,04,11,17,21,10.40
2021,04,11,17,22,10.40
2021,04,11,17,23,10.40
2021,04,11,17,24,10.40
2021,04,11,17,25,10.40
2021,04,11,17,26,10.40
2021,04,11,17,27,10.40
2021,04,11,17,28,10.40
2021,04,11,17,29,10.40
2021,04,11,17,30,10.40
2021,04,11,17,31,10.40
2021,04,11,17,32,10.30
2021,04,11,17,33,10.30
2021,04,11,17,34,10.40
2021,04,11,17,35,10.40
2021,04,11,17,36,10.40
2021,04,11,17,37,10.40
2021,04,11,17,38,10.40
2021,04,11,17,39,10.40
2021,04,11,17,40,10.30
2021,04,11,17,41,10.30
2021,04,11,17,42,10.30
2021,04,11,17,43,10.30
2021,04,11,17,44,10.30
2021,04,11,17,45,10.30